Temperature
29 30 30 31 31 32 31 31 30 30 30 30 31 30 30 29 29 28 27 26 25 24 24 23 23 23 22 22 21 21 21 20 20 20 19 19 19 19 19 18 18 18 18 18
28 30 30 30 31 31 31 31 31 30 30 30 29 29 28 28 28 27 26 26 25 24 23 23 22 22 22 22 21 21 21 20 20 20 19 19 19 19 18 18 18 18 18 18
27 29 29 29 30 30 31 31 30 29 29 29 29 28 27 27 26 26 25 25 24 24 23 23 22 22 21 21 21 21 20 20 20 20 19 19 19 18 18 18 18 18 18 17
27 27 26 29 31 31 30 30 29 29 29 28 28 27 26 25 25 24 24 24 24 23 23 22 22 22 21 21 21 20 20 20 20 19 19 19 18 18 18 18 17 17 17 17
26 26 27 29 30 30 29 28 29 28 28 27 27 27 25 24 23 23 23 23 23 23 23 22 22 21 21 21 20 20 20 19 19 19 19 19 18 18 18 17 17 17 17 17
25 25 26 27 29 29 29 27 27 27 27 26 26 26 24 23 22 22 22 22 22 22 22 21 21 21 21 20 20 20 19 19 19 19 19 18 18 18 18 17 17 17 17 17
25 25 25 26 28 28 27 25 26 26 26 25 24 24 23 22 22 21 21 21 21 21 21 20 20 20 20 20 20 19 19 19 18 18 18 18 18 18 17 17 17 17 16 16
25 24 24 26 27 25 24 24 25 25 24 24 23 23 22 21 21 21 20 20 20 20 20 20 20 20 20 19 19 19 19 18 18 18 18 18 18 17 17 17 17 16 16 16
24 24 24 24 24 23 23 24 24 24 23 23 22 22 21 21 20 20 20 19 19 19 19 19 19 19 19 19 19 19 18 18 18 18 18 17 17 17 17 17 16 16 16 16
23 24 24 24 23 23 23 23 23 23 23 22 22 21 20 20 20 19 19 19 19 19 18 18 18 18 19 18 18 18 18 18 18 18 17 17 17 17 17 17 16 16 16 16
22 23 23 23 23 22 22 22 22 22 22 21 21 20 20 20 19 19 19 18 18 18 18 18 18 18 18 18 18 18 18 18 17 17 17 17 17 17 16 16 16 16 16 16
22 22 22 22 22 22 22 21 21 21 21 20 20 20 19 19 19 18 18 18 18 18 17 17 17 17 18 18 18 17 17 17 17 17 17 17 17 17 16 16 16 16 16 16
21 21 21 21 21 21 21 21 20 20 20 19 19 19 19 18 18 18 18 17 17 17 17 17 17 17 17 17 17 17 17 17 17 17 17 17 17 16 16 16 16 16 16 15
20 19 20 20 20 20 20 20 19 19 19 19 18 18 18 18 18 17 17 17 17 17 17 17 17 17 17 17 17 17 17 17 17 17 17 17 17 16 16 16 16 15 15 15
19 19 19 19 19 19 19 19 19 19 18 18 18 18 17 17 17 16 16 16 16 16 16 16 16 16 16 16 16 16 16 16 16 16 16 16 16 16 16 15 15 15 15 15
18 18 18 19 19 18 18 18 18 18 18 18 17 17 17 16 16 16 16 16 16 16 15 15 15 16 16 16 16 16 16 16 16 16 16 16 16 16 15 15 15 14 14 14
18 18 18 18 18 18 18 18 18 17 17 17 17 16 16 16 16 16 15 15 15 15 15 15 15 15 15 15 15 15 15 16 16 16 15 16 15 15 15 15 14 14 14 14
17 17 17 17 17 17 17 17 17 17 17 16 16 16 16 15 15 15 15 15 15 14 14 14 14 14 15 15 15 15 15 15 15 15 15 15 15 15 15 15 14 14 14 14
17 17 17 17 17 17 17 17 16 16 16 16 15 15 15 15 15 15 14 14 14 14 14 14 14 14 14 14 14 14 14 14 14 14 15 14 14 14 14 14 14 13 13 13
16 16 16 16 16 16 16 16 16 15 15 15 15 15 15 14 14 14 14 14 13 13 13 13 13 13 14 14 14 14 14 14 14 14 14 14 14 14 14 13 13 13 13 13
16 16 16 16 15 15 15 15 15 15 14 14 14 14 14 14 14 13 13 13 13 13 13 13 13 13 13 13 13 13 13 13 13 13 14 14 14 13 13 13 13 13 12 12
15 15 15 15 14 14 14 14 14 14 14 14 13 13 13 13 13 13 13 13 13 13 13 13 13 13 13 13 13 13 13 13 13 13 13 13 13 13 13 13 12 12 12 12
14 14 14 14 14 14 14 14 14 13 13 13 13 13 13 13 13 13 12 13 12 13 13 13 13 13 13 13 13 13 13 13 13 13 13 13 13 12 12 12 12 12 12 12
13 13 13 13 13 13 13 13 13 13 13 13 12 12 12 12 12 12 12 12 12 12 12 12 12 12 12 12 12 12 12 12 12 12 12 12 12 12 12 12 11 11 11 11
13 13 13 13 13 13 13 13 13 13 13 13 12 12 12 12 12 12 12 12 12 12 12 12 12 12 12 12 12 12 12 12 12 12 12 12 12 12 11 11 11 11 11 11
13 13 13 12 12 13 13 13 13 13 13 13 12 12 12 12 12 12 12 12 12 12 12 12 12 12 12 12 12 11 11 11 11 11 11 11 11 11 11 11 11 11 10 10
12 12 12 12 12 12 12 12 12 12 12 12 12 12 12 12 12 12 12 12 12 12 12 12 12 12 12 12 12 11 11 11 11 11 11 11 11 11 11 10 10 10 10 10
Wind_Speed
13 13 11 11 11 11 11 11 8 5 5 4 1 4 5 6 6 7 7 6 5 5 4 4 4 4 5 6 5 6 6 7 6 5 4 4 4 4 3 3 3 2 2 2
13 14 12 14 13 12 12 10 9 6 5 1 4 6 5 5 5 5 5 4 5 5 5 4 3 3 4 5 5 5 5 5 5 5 5 5 4 4 3 3 2 2 2 2
12 13 13 15 13 12 9 7 6 5 2 1 3 5 5 4 5 4 3 3 3 4 5 4 4 4 3 4 5 5 5 4 5 5 5 4 5 4 4 3 3 3 2 2
10 11 14 9 6 6 5 2 1 1 2 2 3 5 5 5 6 5 4 3 2 2 4 4 4 4 3 4 5 5 5 5 5 5 4 4 4 4 3 3 2 2 2 2
9 13 13 8 6 6 6 3 0 1 2 2 2 4 5 7 7 5 4 3 2 1 2 2 2 2 3 3 5 5 5 4 4 5 5 4 5 4 3 3 3 3 3 3
10 12 11 6 4 4 4 4 1 1 2 3 2 2 3 7 7 6 5 4 3 2 2 2 2 2 3 3 4 4 4 5 4 5 5 5 5 4 4 3 3 3 3 3
13 13 6 4 6 6 7 1 4 3 2 2 3 3 4 6 5 5 4 4 5 4 3 2 1 2 2 2 2 3 3 4 4 4 5 4 4 3 3 3 3 3 3 3
11 12 8 2 3 2 3 4 4 5 4 4 5 5 5 5 5 4 4 5 4 4 3 2 2 2 1 1 1 2 3 3 4 4 5 4 4 3 3 3 4 3 3 3
4 3 3 4 5 5 3 3 3 3 4 4 4 4 5 4 4 4 4 3 3 4 3 3 2 1 0 1 1 1 2 3 3 4 4 3 4 4 4 4 4 4 4 4
4 2 1 2 3 3 3 2 2 3 3 3 3 3 3 2 3 2 2 3 3 3 3 3 2 1 1 1 2 2 3 3 3 4 4 4 4 4 5 5 5 4 4 4
5 5 4 1 1 1 2 2 2 3 2 2 2 1 1 1 1 1 2 2 2 2 2 2 2 2 2 1 1 2 3 3 3 4 4 3 4 3 5 5 5 5 4 4
5 3 4 2 2 1 0 0 1 1 2 2 1 2 1 1 1 1 1 1 2 2 3 2 3 3 3 2 1 2 3 3 4 4 3 3 4 3 2 2 3 4 5 4
3 4 4 4 4 3 3 2 2 2 2 2 2 2 2 1 1 1 1 2 2 2 3 3 3 3 3 3 2 3 4 4 4 4 4 5 5 5 3 1 1 2 3 4
3 4 5 5 6 5 4 4 3 3 3 2 2 2 2 2 2 2 2 3 3 3 3 3 3 4 4 4 3 4 4 5 5 5 5 5 4 4 4 3 2 1 1 2
5 6 6 6 6 5 4 4 4 4 3 3 3 3 3 3 3 3 3 3 3 4 4 4 4 4 4 5 5 5 5 4 4 4 4 4 4 4 4 4 3 2 1 0
7 7 7 7 6 6 6 6 6 5 4 4 4 3 4 4 3 3 3 3 3 4 4 4 4 4 4 5 5 5 4 5 5 5 5 4 4 4 4 4 4 3 3 2
8 7 6 7 7 8 8 8 7 5 5 5 4 4 4 4 4 4 4 4 3 3 3 3 4 4 5 5 6 5 4 4 5 5 5 4 4 4 4 3 3 3 3 3
7 7 8 9 8 8 8 7 6 6 5 5 5 5 5 5 5 4 4 4 3 3 3 3 4 5 4 5 5 5 5 4 4 4 4 4 3 4 3 3 3 3 2 2
7 8 9 9 9 7 7 6 6 6 5 5 5 5 5 5 4 4 4 4 4 4 3 3 5 6 5 4 5 4 4 4 4 3 3 2 3 3 2 3 3 3 3 3
7 7 8 8 7 6 6 5 5 5 6 6 5 5 4 4 4 3 3 3 3 3 3 3 4 5 5 4 5 4 4 3 3 3 2 2 2 1 1 1 1 2 2 3
6 6 6 5 4 5 5 5 5 5 6 5 6 5 4 3 3 3 4 4 2 2 4 4 4 4 4 4 5 4 3 3 3 2 2 1 1 1 1 1 1 1 1 1
4 3 4 4 4 5 5 5 5 5 5 5 5 5 4 4 4 3 3 3 2 3 3 4 3 3 4 5 4 4 3 3 2 2 1 1 1 1 1 1 1 1 1 1
3 3 3 4 4 5 5 5 5 4 4 4 4 4 5 3 4 4 3 2 2 3 3 2 2 2 4 3 3 3 3 2 2 2 2 1 1 2 2 2 1 1 1 1
3 3 4 4 4 4 4 4 3 3 4 4 4 4 4 4 3 3 3 2 2 3 2 1 1 2 3 3 3 3 2 2 1 1 1 1 1 1 1 1 2 2 2 1
4 4 4 5 5 4 3 3 3 3 3 3 4 3 3 3 3 3 2 1 1 2 2 1 3 3 2 2 2 2 1 1 1 1 1 1 1 1 1 1 1 1 2 2
4 4 4 4 4 4 4 3 2 2 2 1 1 1 1 2 2 2 2 2 2 2 2 1 1 2 2 1 1 1 1 1 1 1 1 0 1 1 1 1 1 1 2 2
3 4 3 3 3 3 3 2 2 2 1 1 1 1 0 1 1 1 1 1 1 1 1 0 0 0 1 0 0 1 1 0 1 0 0 1 1 1 1 2 2 2 2 2
Wind_Direction
262 270 275 266 259 248 250 258 258 247 246 248 142 120 126 136 137 132 127 129 132 137 137 144 155 161 167 173 173 174 174 184 186 185 185 187 194 194 192 206 215 202 210 219
263 261 266 269 262 252 248 254 251 250 255 321 68 76 87 94 114 122 130 143 145 144 146 152 158 169 177 168 166 165 173 183 177 177 183 186 193 192 196 204 207 203 208 223
259 264 261 256 257 254 252 252 254 248 273 92 83 81 70 72 89 87 98 128 153 161 160 166 170 169 182 174 166 171 177 182 174 177 186 190 199 194 202 202 202 212 213 204
257 258 254 256 266 250 251 259 352 97 76 72 104 103 74 69 76 74 61 62 71 156 163 168 173 174 180 182 171 176 182 186 177 180 189 189 198 201 196 195 201 205 211 212
251 249 251 252 249 247 241 246 85 131 93 67 73 99 75 67 66 55 50 50 60 65 137 133 158 160 163 179 177 183 188 187 184 184 190 194 197 196 191 189 196 205 198 203
250 253 252 258 286 289 256 232 102 91 69 47 344 254 82 58 55 46 37 39 38 56 79 87 104 145 166 189 185 187 190 186 186 187 194 196 197 195 197 192 201 216 211 204
243 252 248 287 305 280 241 225 72 72 80 71 40 38 83 75 63 63 50 47 46 47 68 85 84 125 156 175 191 192 184 178 184 190 197 196 190 190 187 201 210 221 218 215
239 247 241 322 287 321 65 58 60 62 67 73 86 88 82 72 65 62 56 47 40 43 56 79 91 107 113 154 176 176 175 181 187 190 211 203 181 190 203 216 213 218 222 226
257 249 83 70 80 79 76 64 50 63 77 92 88 84 79 68 65 56 41 38 23 29 38 54 82 82 43 192 182 201 191 191 194 197 208 193 187 203 215 217 223 227 225 231
276 262 86 66 65 80 73 58 38 64 83 93 96 89 69 49 46 48 25 25 20 19 20 26 27 316 266 245 195 212 214 205 207 211 210 194 193 206 220 223 227 225 224 227
241 257 279 313 359 35 68 49 37 44 50 69 72 55 50 40 39 33 16 15 11 359 357 6 357 335 307 302 257 239 241 229 225 227 213 201 209 215 220 224 231 222 229 230
258 274 271 270 285 261 244 301 353 357 358 9 335 311 318 349 21 12 335 344 341 332 331 334 337 339 338 329 302 267 250 243 243 236 218 217 220 247 332 261 224 209 210 218
298 307 307 294 294 283 265 270 272 271 280 293 299 308 310 304 310 312 314 316 318 317 323 327 327 330 329 310 287 266 252 247 250 247 226 223 224 222 231 285 295 232 210 201
310 306 289 285 283 279 271 276 284 275 268 268 269 277 283 288 288 296 300 297 298 300 304 309 311 310 317 317 287 264 256 241 243 245 232 225 229 232 229 227 231 272 309 181
281 275 269 274 270 263 263 258 262 269 269 262 257 261 269 279 282 284 295 298 300 297 303 302 297 304 313 313 301 285 275 264 251 250 247 235 234 234 233 228 227 226 241 242
273 263 260 264 260 257 258 254 253 255 263 264 266 269 274 272 274 278 275 279 280 284 294 294 294 303 309 305 297 282 275 270 265 255 249 239 235 239 238 227 223 223 222 203
265 260 263 266 260 254 254 253 252 251 261 266 269 275 276 274 270 271 271 269 269 274 280 287 291 296 297 294 292 284 280 273 265 261 250 245 234 231 233 235 230 222 224 205
262 263 264 268 267 262 264 261 259 259 260 265 261 262 264 270 275 277 279 283 279 280 287 298 309 299 291 290 289 283 277 271 262 259 263 261 248 236 226 222 222 224 217 201
259 259 264 265 264 261 262 264 266 269 270 266 261 263 263 264 268 269 270 268 267 272 292 310 297 288 287 295 296 280 272 266 260 255 259 256 246 241 229 226 225 218 213 197
260 263 267 269 269 266 265 266 269 271 270 270 270 269 267 268 265 256 260 264 274 290 303 305 297 296 294 298 292 279 274 271 263 246 238 234 237 231 212 227 239 238 213 196
271 270 273 274 276 274 275 275 268 264 269 266 261 258 259 264 265 256 258 258 252 271 278 275 277 287 298 306 288 284 281 276 262 246 243 234 209 172 169 179 208 238 255 228
291 288 293 297 297 292 289 282 274 264 261 258 257 260 261 257 256 252 239 255 260 266 267 275 283 309 320 307 285 277 272 268 265 243 226 220 182 180 163 170 207 202 234 228
293 294 291 288 286 287 288 279 267 256 257 254 255 258 258 263 262 260 255 246 242 259 265 287 310 316 319 301 289 274 265 260 259 240 221 214 196 190 184 187 189 167 161 156
302 306 298 293 283 274 275 272 267 252 241 239 241 244 249 251 249 245 243 221 228 242 259 276 211 271 287 287 284 269 240 222 230 251 245 225 236 202 153 147 148 131 128 161
299 296 297 296 286 280 278 270 262 256 244 239 238 229 232 234 242 249 228 192 203 228 249 217 210 233 253 286 295 302 272 207 241 258 241 217 217 141 115 126 127 128 146 148
291 287 288 290 289 289 285 280 271 260 247 244 240 237 226 207 220 226 218 211 209 221 245 247 185 196 232 267 283 297 283 178 215 259 252 145 110 102 106 103 94 111 114 106
294 294 291 285 280 283 284 277 272 272 267 259 250 213 215 181 199 209 218 212 221 238 241 253 265 215 214 229 19 357 335 22 123 215 224 93 90 96 112 109 104 92 92 97
Height
1469 1464 1464 1464 1463 1460 1465 1467 1475 1476 1475 1470 1469 1472 1474 1478 1481 1485 1489 1492 1495 1498 1500 1502 1504 1506 1508 1510 1511 1513 1514 1515 1517 1518 1520 1521 1522 1523 1524 1524 1525 1525 1525 1524
1473 1466 1464 1465 1460 1459 1461 1462 1466 1470 1473 1469 1471 1474 1478 1480 1483 1485 1489 1492 1495 1497 1500 1501 1503 1505 1506 1508 1509 1511 1512 1514 1515 1516 1518 1518 1520 1521 1521 1522 1522 1522 1522 1522
1480 1469 1468 1473 1463 1461 1462 1461 1465 1473 1474 1471 1473 1477 1480 1482 1484 1487 1490 1493 1495 1497 1499 1500 1502 1503 1504 1506 1508 1509 1510 1512 1513 1514 1515 1516 1517 1518 1519 1519 1519 1519 1520 1520
1478 1480 1490 1468 1454 1455 1461 1464 1465 1469 1472 1473 1476 1479 1482 1484 1486 1488 1490 1493 1494 1496 1498 1499 1501 1502 1503 1505 1506 1507 1509 1510 1511 1512 1514 1514 1515 1515 1516 1517 1517 1517 1517 1517
1481 1483 1476 1465 1457 1458 1463 1469 1468 1470 1472 1475 1477 1479 1483 1485 1487 1490 1491 1493 1494 1495 1497 1498 1499 1500 1501 1503 1504 1505 1506 1508 1508 1510 1511 1512 1512 1513 1513 1514 1514 1514 1514 1514
1479 1485 1485 1472 1460 1459 1463 1474 1470 1471 1474 1477 1478 1481 1486 1488 1489 1490 1492 1493 1494 1495 1496 1496 1497 1498 1499 1501 1502 1503 1504 1505 1506 1507 1508 1509 1510 1510 1511 1511 1511 1511 1511 1511
1480 1481 1476 1467 1463 1463 1476 1480 1474 1474 1476 1479 1482 1486 1488 1488 1490 1491 1493 1493 1493 1494 1495 1495 1496 1497 1497 1498 1500 1501 1502 1503 1504 1505 1506 1506 1507 1508 1508 1508 1508 1508 1508 1508
1476 1482 1483 1469 1468 1472 1477 1476 1476 1477 1479 1481 1484 1486 1487 1489 1490 1491 1492 1492 1493 1493 1494 1495 1495 1495 1495 1497 1498 1499 1500 1501 1501 1502 1504 1505 1505 1505 1505 1505 1506 1506 1505 1505
1474 1477 1473 1472 1474 1476 1477 1478 1479 1480 1481 1482 1484 1487 1488 1490 1491 1492 1493 1493 1493 1493 1493 1494 1494 1494 1495 1495 1497 1497 1498 1498 1499 1500 1501 1502 1502 1502 1502 1502 1503 1502 1502 1502
1473 1472 1472 1473 1475 1476 1478 1480 1480 1481 1482 1484 1485 1487 1489 1490 1491 1492 1493 1493 1493 1493 1493 1493 1493 1494 1494 1495 1495 1495 1496 1496 1497 1498 1498 1499 1499 1499 1499 1499 1499 1499 1499 1499
1473 1474 1474 1475 1477 1478 1479 1480 1481 1482 1483 1485 1486 1487 1489 1490 1491 1491 1492 1492 1492 1492 1492 1491 1492 1492 1493 1493 1493 1493 1493 1494 1495 1495 1495 1495 1495 1495 1495 1496 1496 1496 1496 1496
1473 1474 1475 1477 1478 1479 1480 1481 1482 1483 1484 1485 1486 1487 1488 1489 1489 1490 1490 1491 1491 1491 1491 1490 1490 1490 1490 1490 1490 1490 1491 1491 1492 1492 1492 1492 1492 1492 1492 1493 1493 1493 1493 1493
1474 1475 1476 1477 1478 1478 1479 1481 1482 1483 1484 1484 1486 1486 1487 1487 1488 1489 1489 1489 1489 1489 1489 1488 1488 1488 1488 1487 1487 1487 1487 1487 1488 1489 1489 1489 1489 1489 1488 1489 1489 1489 1489 1488
1474 1475 1476 1477 1477 1478 1479 1480 1481 1482 1482 1483 1484 1485 1485 1486 1486 1487 1487 1487 1487 1487 1486 1486 1486 1485 1485 1485 1484 1484 1484 1484 1485 1485 1485 1485 1485 1486 1485 1485 1484 1484 1484 1484
1474 1474 1475 1476 1476 1477 1478 1479 1479 1480 1481 1481 1482 1483 1483 1483 1484 1484 1484 1484 1484 1484 1484 1484 1483 1483 1482 1482 1481 1481 1481 1481 1481 1481 1481 1482 1482 1482 1482 1482 1481 1480 1480 1480
1472 1473 1473 1474 1474 1475 1476 1477 1477 1478 1479 1479 1480 1480 1480 1481 1481 1481 1481 1481 1481 1481 1480 1480 1480 1479 1479 1478 1478 1477 1477 1477 1478 1477 1478 1478 1478 1478 1478 1478 1477 1477 1476 1476
1470 1470 1471 1472 1472 1473 1474 1474 1475 1475 1476 1476 1477 1477 1477 1477 1477 1477 1478 1478 1478 1477 1477 1476 1475 1475 1475 1475 1474 1474 1474 1474 1474 1474 1474 1474 1474 1474 1474 1474 1474 1473 1473 1472
1468 1469 1469 1469 1469 1470 1470 1471 1471 1472 1472 1472 1472 1473 1473 1474 1474 1474 1474 1474 1474 1473 1473 1473 1472 1472 1471 1471 1471 1470 1470 1470 1470 1470 1470 1470 1470 1470 1470 1470 1470 1470 1469 1469
1465 1465 1466 1466 1466 1466 1467 1467 1467 1468 1468 1468 1469 1469 1469 1469 1470 1470 1470 1470 1470 1469 1469 1469 1468 1468 1467 1467 1466 1466 1466 1466 1466 1466 1466 1466 1466 1466 1466 1466 1467 1467 1466 1466
1461 1462 1462 1463 1462 1463 1463 1464 1464 1464 1464 1465 1465 1465 1465 1465 1466 1466 1466 1466 1466 1466 1466 1465 1465 1464 1464 1463 1463 1463 1463 1462 1462 1462 1462 1462 1462 1462 1462 1463 1463 1463 1463 1463
1458 1459 1459 1459 1459 1459 1460 1460 1460 1460 1461 1461 1461 1461 1462 1462 1462 1462 1462 1462 1462 1462 1462 1461 1461 1460 1460 1460 1460 1459 1459 1459 1459 1459 1459 1459 1459 1459 1459 1459 1459 1460 1460 1460
1456 1456 1456 1455 1455 1455 1455 1455 1456 1456 1456 1457 1457 1457 1458 1458 1459 1459 1459 1459 1459 1459 1458 1458 1458 1457 1457 1457 1457 1456 1456 1456 1456 1456 1456 1456 1456 1456 1456 1456 1456 1456 1458 1457
1454 1453 1453 1452 1452 1451 1451 1451 1451 1451 1451 1452 1453 1454 1454 1455 1455 1455 1455 1456 1456 1456 1455 1455 1455 1454 1454 1454 1453 1453 1453 1453 1453 1453 1453 1453 1453 1453 1453 1453 1453 1453 1454 1454
1451 1450 1450 1450 1449 1449 1448 1448 1448 1448 1448 1449 1450 1450 1451 1452 1452 1452 1453 1453 1453 1453 1453 1452 1452 1452 1452 1451 1451 1450 1450 1450 1450 1451 1451 1451 1451 1451 1451 1451 1451 1451 1452 1452
1448 1448 1447 1447 1446 1446 1445 1445 1445 1445 1445 1446 1447 1448 1448 1449 1449 1450 1450 1450 1450 1450 1450 1450 1450 1450 1449 1449 1449 1448 1448 1448 1449 1449 1449 1449 1450 1449 1449 1449 1449 1450 1450 1450
1446 1446 1445 1444 1444 1443 1443 1442 1442 1442 1443 1443 1444 1445 1446 1447 1447 1448 1448 1448 1448 1448 1448 1448 1448 1448 1448 1447 1447 1447 1447 1447 1447 1447 1447 1448 1448 1448 1448 1448 1448 1448 1449 1449
1444 1443 1443 1442 1441 1441 1441 1440 1440 1441 1441 1442 1443 1444 1445 1446 1446 1446 1446 1446 1447 1447 1447 1447 1447 1447 1446 1446 1446 1446 1446 1446 1445 1445 1446 1446 1446 1446 1447 1447 1447 1447 1447 1448